Location: Dampvalley
(47.9094°N, 6.1967°E)
Time: 02:10:44
(UTC+00:00)

N. Korean satellite - Pass Details

Date: 05 December 2022
Orbit: 408 x 444 km, 97.3° (Epoch: 28 January)

Event Time Altitude Azimuth Distance (km) Brightness Sun altitude
Rises 04:18:27 0° 23° (NNE) 2,517 10.4 -27.5°
Reaches altitude 10° 04:20:45 10° 36° (NE) 1,629 9.6 -27.1°
Maximum altitude 04:23:45 26° 95° (E) 947 8.7 -26.6°
Drops below altitude 10° 04:26:41 10° 154° (SSE) 1,594 9.5 -26.1°
Sets 04:28:55 0° 167° (SSE) 2,451 10.4 -25.7°
